N2DJ Weather Reports


Display with metric or nautical units.
time (UTC)temp
F
wind
direction
speed
MPH
gust
MPH
rain 1hr
in
rain 24hr
in
rain mn
in
humidity
%
barometer
mb
20260510080049 47 317 0.0 2.0 0.00 0.25 0.00 85 1010.4
20260510074543 47 316 0.0 2.0 0.00 0.25 0.00 89 1010.5
20260510073036 47 316 0.0 2.0 0.00 0.25 0.00 92 1009.9
20260510071533 48 321 0.0 2.0 0.00 0.25 0.00 93 1009.8
20260510070034 48 321 0.0 1.0 0.00 0.25 0.00 94 1009.7
20260510064526 49 321 0.0 0.0 0.00 0.25 0.00 94 1009.3
20260510063025 49 321 0.0 1.0 0.00 0.25 0.00 94 1009.3
20260510061528 49 321 0.0 1.0 0.00 0.25 0.00 94 1009.2
20260510060023 49 322 0.0 2.0 0.00 0.25 0.00 95 1009.0
20260510054521 49 323 1.0 4.0 0.00 0.25 0.00 95 1009.1
20260510053018 50 234 0.0 1.0 0.00 0.25 0.00 95 1008.9
20260510051517 50 234 0.0 0.0 0.00 0.25 0.00 95 1008.7
20260510050016 50 234 0.0 2.0 0.00 0.25 0.00 95 1008.2
20260510044515 50 234 0.0 4.0 0.00 0.25 0.00 94 1008.6
20260510043012 50 221 0.0 3.0 0.00 0.25 0.00 94 1008.2
20260510041509 51 206 0.0 4.0 0.00 0.25 0.00 94 1007.6
20260510040007 51 205 1.0 5.0 0.00 0.25 0.25 94 1007.4
20260510034505 51 220 0.0 4.0 0.00 0.25 0.25 93 1007.3
20260510033005 52 234 2.0 11.0 0.00 0.25 0.25 94 1007.5
20260510031504 52 272 2.0 7.0 0.00 0.25 0.25 94 1007.6
20260510030004 51 237 1.0 5.0 0.00 0.25 0.25 94 1007.4
20260510024504 51 302 0.0 2.0 0.00 0.25 0.25 93 1007.5
20260510023003 51 305 1.0 6.0 0.00 0.25 0.25 92 1007.0
20260510021504 51 281 2.0 11.0 0.00 0.25 0.25 93 1006.7
20260510020006 51 243 1.0 6.0 0.00 0.25 0.25 92 1006.7
20260510014501 51 270 2.0 8.0 0.00 0.25 0.25 93 1006.7
20260510013100 51 211 2.0 9.0 0.00 0.25 0.25 93 1006.5
20260510011601 51 207 3.0 9.0 0.00 0.25 0.25 93 1006.5
20260510010104 51 192 2.0 8.0 0.00 0.25 0.25 93 1006.2
20260510004600 51 192 1.0 8.0 0.00 0.25 0.25 93 1005.8
20260510003104 51 197 2.0 10.0 0.02 0.25 0.25 94 1005.7
20260510001558 51 215 3.0 12.0 0.04 0.25 0.25 94 1005.7
20260510000059 51 211 0.0 5.0 0.08 0.25 0.25 93 1005.7
20260509234608 51 180 1.0 4.0 0.25 0.25 0.25 93 1004.9
20260509233057 51 248 3.0 14.0 0.23 0.23 0.23 92 1005.9
20260509231557 51 254 4.0 12.0 0.21 0.21 0.21 91 1006.2
20260509230057 53 273 3.0 25.0 0.17 0.17 0.17 86 1006.2
20260509224556 61 244 2.0 9.0 0.00 0.00 0.00 72 1003.9
20260509223059 62 161 2.0 7.0 0.00 0.00 0.00 71 1003.5
20260509221554 62 160 1.0 5.0 0.00 0.00 0.00 71 1003.4
20260509214551 62 163 2.0 7.0 0.00 0.00 0.00 70 1003.9
20260509213051 62 171 2.0 7.0 0.00 0.00 0.00 71 1003.9
20260509211553 62 155 3.0 8.0 0.00 0.00 0.00 70 1003.9
20260509210048 62 191 4.0 7.0 0.00 0.00 0.00 69 1004.4
20260509204557 63 250 3.0 7.0 0.00 0.00 0.00 71 1004.4
20260509203046 62 171 3.0 8.0 0.00 0.00 0.00 71 1004.2
20260509201546 63 192 4.0 11.0 0.00 0.00 0.00 68 1004.5
20260509200045 64 240 4.0 12.0 0.00 0.00 0.00 67 1004.6
20260509194545 64 240 6.0 13.0 0.00 0.00 0.00 68 1004.6
20260509193044 63 267 7.0 16.0 0.00 0.00 0.00 67 1004.8
20260509191540 63 252 5.0 15.0 0.00 0.00 0.00 67 1005.2
20260509190037 64 240 6.0 17.0 0.00 0.00 0.00 65 1005.5
20260509184538 63 227 5.0 11.0 0.00 0.00 0.00 68 1005.7
20260509183036 63 289 5.0 15.0 0.00 0.00 0.00 67 1005.5
20260509181534 63 181 3.0 17.0 0.00 0.00 0.00 68 1005.6
20260509180030 62 178 6.0 10.0 0.00 0.00 0.00 70 1005.7
20260509174529 63 159 4.0 15.0 0.00 0.00 0.00 71 1006.0
20260509173025 62 247 3.0 14.0 0.00 0.00 0.00 72 1006.3
20260509171525 61 254 6.0 12.0 0.00 0.00 0.00 70 1006.4
20260509170122 60 215 2.0 15.0 0.00 0.00 0.00 73 1006.6
20260509164520 61 243 6.0 17.0 0.00 0.00 0.00 71 1006.6
20260509163020 60 216 4.0 10.0 0.00 0.00 0.00 73 1007.0
20260509161516 60 263 5.0 10.0 0.00 0.00 0.00 74 1007.1
20260509160014 60 212 4.0 14.0 0.00 0.00 0.00 74 1007.1
20260509154510 59 217 3.0 10.0 0.00 0.00 0.00 75 1007.3
20260509153011 58 160 3.0 7.0 0.00 0.00 0.00 77 1007.3
20260509151505 58 231 3.0 7.0 0.00 0.00 0.00 78 1007.5
20260509150002 57 238 3.0 9.0 0.00 0.00 0.00 78 1007.5
20260509144507 57 213 1.0 8.0 0.00 0.00 0.00 79 1007.5
20260509143102 57 233 3.0 8.0 0.00 0.00 0.00 79 1007.6
20260509141558 56 185 4.0 11.0 0.00 0.00 0.00 81 1007.7
20260509140154 56 234 3.0 10.0 0.00 0.00 0.00 83 1007.8
20260509134554 56 229 2.0 7.0 0.00 0.00 0.00 83 1007.9
20260509133058 56 178 2.0 9.0 0.00 0.00 0.00 84 1008.0
20260509131556 55 221 1.0 7.0 0.00 0.00 0.00 85 1007.9
20260509130050 54 127 5.0 9.0 0.00 0.00 0.00 86 1007.9
20260509124543 53 150 2.0 7.0 0.00 0.00 0.00 88 1007.9
20260509123038 51 169 2.0 7.0 0.00 0.00 0.00 89 1008.1
20260509121548 50 167 2.0 7.0 0.00 0.00 0.00 90 1008.3
20260509120034 48 166 2.0 5.0 0.00 0.00 0.00 92 1008.4
20260509114526 47 170 1.0 5.0 0.00 0.08 0.00 94 1008.4
20260509113120 45 154 1.0 5.0 0.00 0.08 0.00 95 1008.2
20260509111515 44 161 1.0 3.0 0.00 0.08 0.00 95 1008.4
20260509110011 42 203 0.0 1.0 0.00 0.12 0.00 94 1008.4
20260509104508 40 203 0.0 0.0 0.00 0.12 0.00 94 1008.6
20260509103004 40 203 0.0 0.0 0.00 0.12 0.00 93 1008.6
20260509101502 40 203 0.0 0.0 0.00 0.12 0.00 93 1008.4
20260509100103 40 203 0.0 0.0 0.00 0.12 0.00 93 1008.4
20260509094559 40 203 0.0 0.0 0.00 0.12 0.00 92 1008.5
20260509093059 39 203 0.0 0.0 0.00 0.12 0.00 92 1008.5
20260509091558 39 203 0.0 0.0 0.00 0.12 0.00 92 1008.4
20260509090106 39 203 0.0 0.0 0.00 0.12 0.00 92 1008.5
20260509084600 39 203 0.0 0.0 0.00 0.12 0.00 92 1008.6
20260509083059 39 203 0.0 1.0 0.00 0.12 0.00 93 1008.7
20260509081554 38 203 0.0 2.0 0.00 0.12 0.00 93 1008.7